Change the Weather History Date:

Wednesday, November 14, 2012

  Actual Average Record
Temperature  
Mean Temperature 44 °F -  
Max Temperature 48 °F 42 °F 53 °F (1999)
Min Temperature 40 °F 33 °F 28 °F (2014)
Degree Days  
Heating Degree Days 21    
Moisture  
Dew Point 43 °F    
Average Humidity 96    
Maximum Humidity 100    
Minimum Humidity 87    
Precipitation  
Precipitation 0.08 in 0.37 in - ()
Sea Level Pressure  
Sea Level Pressure 30.27 in    
Wind  
Wind Speed 1 mph ()    
Max Wind Speed 6 mph    
Max Gust Speed -    
Visibility 5.0 miles    
Events Rain    
Averages and records for this station are not official NWS values.
T = Trace of Precipitation, MM = Missing Value Source: Averaged Metar Reports

Daily Weather History Graph

Daily Weather History Graph

Search for Another Location

Airport or City:

Trip Planner

Search our weather history database for the weather conditions in past years. The results will help you decide how hot, cold, wet, or windy it might be!

Date:

Astronomy

Nov. 14, 2012 Rise Set
Actual Time 7:16 AM PST 4:24 PM PST
Civil Twilight 6:41 AM PST 4:59 PM PST
Nautical Twilight 6:02 AM PST 5:38 PM PST
Astronomical Twilight 5:24 AM PST 6:15 PM PST
Moon 8:17 AM PST (11/14) 5:11 PM PST (11/14)
Length of Visible Light 10h 18m
Length of Day
9h 08m
New Moon, 1% of the Moon is Illuminated
Nov 14
New Moon
Nov 20
First Quarter
Nov 28
Full
Dec 6
Last Quarter
Dec 13
New

Hourly Weather History & Observations

Time (PST) Temp. Windchill Dew Point Humidity Pressure Visibility Wind Dir Wind Speed Gust Speed Precip Events Conditions
12:00 AM 42.8 °F - 41.0 °F 93% 30.19 in 5.0 mi WNW 2.3 mph - N/A Rain Light Rain
12:04 AM 42.8 °F - 42.8 °F 100% 30.19 in 6.0 mi Calm Calm - N/A Rain Light Rain
12:28 AM 42.8 °F - 41.0 °F 93% 30.19 in 5.0 mi Variable 2.3 mph - N/A Rain Light Rain
12:38 AM 42.8 °F - 41.0 °F 93% 30.19 in 2.5 mi Calm Calm - N/A Rain Light Rain
12:46 AM 42.8 °F - 42.8 °F 100% 30.19 in 3.0 mi Variable 2.3 mph - N/A Rain Light Rain
12:51 AM 42.8 °F - 41.0 °F 93% 30.19 in 6.0 mi Variable 2.3 mph - N/A Rain Light Rain
12:55 AM 42.8 °F 41.1 °F 41.0 °F 93% 30.19 in 8.0 mi ESE 3.5 mph - N/A   Overcast
1:00 AM 42 °F - 42 °F 99% 30.19 in - ESE 2.3 mph - -  
1:00 AM 42.8 °F - 41.0 °F 93% 30.19 in 8.0 mi SE 2.3 mph - N/A   Overcast
1:11 AM 42.8 °F - 42.8 °F 100% 30.19 in 5.0 mi Calm Calm - N/A   Overcast
1:16 AM 42.8 °F - 41.0 °F 93% 30.19 in 4.0 mi Calm Calm - N/A Rain Light Rain
1:24 AM 42.8 °F - 41.0 °F 93% 30.19 in 4.0 mi Calm Calm - N/A Rain Light Rain
1:45 AM 42.8 °F - 41.0 °F 93% 30.20 in 2.2 mi Calm Calm - N/A   Overcast
2:00 AM 42.8 °F - 41.0 °F 93% 30.20 in 1.0 mi Calm Calm - N/A   Overcast
2:09 AM 42.8 °F - 41.0 °F 93% 30.20 in 3.0 mi Calm Calm - N/A   Overcast
2:12 AM 42.8 °F - 41.0 °F 93% 30.20 in 4.0 mi SE 2.3 mph - N/A Rain Light Rain
2:19 AM 42.8 °F - 41.0 °F 93% 30.20 in 2.5 mi ESE 2.3 mph - N/A Rain Light Rain
2:22 AM 42.8 °F - 42.8 °F 100% 30.20 in 2.5 mi SE 2.3 mph - N/A Rain Light Rain
2:45 AM 42.8 °F - 41.0 °F 93% 30.20 in 3.0 mi Calm Calm - N/A Rain Light Rain
2:56 AM 42.8 °F - 41.0 °F 93% 30.21 in 6.0 mi Calm Calm - N/A Rain Light Rain
2:58 AM 42.8 °F - 41.0 °F 93% 30.21 in 6.0 mi Calm Calm - N/A   Overcast
3:00 AM 42.8 °F - 41.0 °F 93% 30.21 in 6.0 mi Calm Calm - N/A   Overcast
3:06 AM 42.8 °F - 41.0 °F 93% 30.21 in 5.0 mi Calm Calm - N/A   Overcast
3:27 AM 41.0 °F - 41.0 °F 100% 30.21 in 2.5 mi Calm Calm - N/A   Overcast
3:35 AM 42.8 °F - 41.0 °F 93% 30.20 in 3.0 mi Variable 2.3 mph - N/A   Overcast
3:51 AM 42.8 °F - 41.0 °F 93% 30.20 in 2.2 mi Variable 2.3 mph - N/A   Overcast
4:00 AM 42 °F - 41 °F 97% 30.20 in - ENE 1.2 mph - -  
4:00 AM 41.0 °F - 41.0 °F 100% 30.20 in 1.0 mi Calm Calm - N/A   Overcast
4:07 AM 41.0 °F - 41.0 °F 100% 30.20 in 3.0 mi Calm Calm - N/A   Overcast
4:12 AM 42.8 °F - 41.0 °F 93% 30.21 in 3.0 mi Calm Calm - N/A Rain Light Rain
4:49 AM 42.8 °F - 41.0 °F 93% 30.22 in 6.0 mi Calm Calm - N/A Rain Light Rain
4:52 AM 42.8 °F - 41.0 °F 93% 30.22 in 7.0 mi Calm Calm - N/A   Overcast
5:00 AM 42.8 °F - 41.0 °F 93% 30.22 in 6.0 mi Calm Calm - N/A   Overcast
5:02 AM 42.8 °F - 41.0 °F 93% 30.22 in 5.0 mi Calm Calm - N/A   Overcast
5:20 AM 42.8 °F - 41.0 °F 93% 30.23 in 4.0 mi Calm Calm - N/A   Overcast
5:25 AM 42.8 °F - 41.0 °F 93% 30.23 in 4.0 mi Calm Calm - N/A Rain Light Rain
5:58 AM 42.8 °F - 41.0 °F 93% 30.23 in 5.0 mi Calm Calm - N/A Rain Light Rain
6:00 AM 42.8 °F - 41.0 °F 93% 30.23 in 5.0 mi Calm Calm - N/A Rain Light Rain
6:02 AM 42.8 °F - 41.0 °F 93% 30.23 in 6.0 mi Calm Calm - N/A Rain Light Rain
6:25 AM 42.8 °F - 42.8 °F 100% 30.24 in 9.0 mi Calm Calm - N/A   Overcast
6:39 AM 42.8 °F - 42.8 °F 100% 30.24 in 8.0 mi Calm Calm - N/A   Overcast
6:48 AM 42.8 °F - 41.0 °F 93% 30.24 in 6.0 mi Variable 2.3 mph - N/A   Overcast
7:00 AM 42 °F - 42 °F 99% 30.24 in - ENE 1.2 mph - -  
7:00 AM 42.8 °F - 42.8 °F 100% 30.25 in 9.0 mi Calm Calm - N/A   Overcast
7:06 AM 42.8 °F - 42.8 °F 100% 30.25 in 9.0 mi Calm Calm - N/A Rain Light Rain
7:35 AM 42.8 °F - 41.0 °F 93% 30.26 in 5.0 mi Calm Calm - N/A Rain Light Rain
7:39 AM 42.8 °F - 41.0 °F 93% 30.26 in 2.5 mi East 2.3 mph - N/A Rain Light Rain
7:51 AM 42.8 °F - 42.8 °F 100% 30.27 in 1.0 mi Variable 2.3 mph - N/A Rain Light Rain
7:52 AM 42.8 °F - 42.8 °F 100% 30.27 in 1.0 mi Variable 2.3 mph - N/A Rain Light Rain
7:57 AM 42.8 °F - 42.8 °F 100% 30.27 in 1.0 mi Calm Calm - N/A Rain Light Rain
7:58 AM 42.8 °F - 42.8 °F 100% 30.27 in 1.0 mi Calm Calm - N/A Rain Light Rain
8:00 AM 42.8 °F - 42.8 °F 100% 30.27 in 1.0 mi Variable 2.3 mph - N/A Rain Light Rain
8:01 AM 42.8 °F 41.1 °F 42.8 °F 100% 30.27 in 1.0 mi East 3.5 mph - N/A Rain Light Rain
8:24 AM 42.8 °F 41.1 °F 42.8 °F 100% 30.28 in 3.0 mi East 3.5 mph - N/A Rain Light Rain
8:56 AM 42.8 °F - 42.8 °F 100% 30.28 in 6.0 mi Calm Calm - N/A Rain Light Rain
9:00 AM 42.8 °F - 42.8 °F 100% 30.28 in 8.0 mi Calm Calm - N/A Rain Light Rain
9:19 AM 42.8 °F - 42.8 °F 100% 30.29 in 9.0 mi Calm Calm - N/A Rain Light Rain
9:24 AM 42.8 °F - 42.8 °F 100% 30.29 in 8.0 mi Calm Calm - N/A   Overcast
9:38 AM 42.8 °F - 42.8 °F 100% 30.29 in 7.0 mi Calm Calm - N/A Rain Light Rain
10:00 AM 43 °F - 43 °F 99% 30.29 in - Calm Calm - -  
10:00 AM 42.8 °F - 42.8 °F 100% 30.30 in 8.0 mi Calm Calm - N/A Rain Light Rain
10:23 AM 42.8 °F - 42.8 °F 100% 30.30 in 9.0 mi Calm Calm - N/A   Overcast
11:00 AM 44.6 °F - 42.8 °F 93% 30.31 in 9.0 mi Calm Calm - N/A   Overcast
12:00 PM 44.6 °F - 44.6 °F 100% 30.31 in 9.0 mi Calm Calm - N/A   Overcast
12:24 PM 44.6 °F - 44.6 °F 100% 30.31 in 9.0 mi Calm Calm - N/A Rain Light Rain
12:49 PM 46.4 °F - 44.6 °F 93% 30.31 in 9.0 mi Variable 2.3 mph - N/A   Overcast
1:00 PM 46 °F - 45 °F 96% 30.30 in - SW 1.2 mph - -  
1:00 PM 46.4 °F - 44.6 °F 93% 30.31 in 9.0 mi Variable 2.3 mph - N/A   Overcast
1:51 PM 48.2 °F - 46.4 °F 93% 30.31 in 7.0 mi WNW 3.5 mph - N/A   Overcast
1:58 PM 48.2 °F - 46.4 °F 93% 30.31 in 9.0 mi Variable 5.8 mph - N/A   Overcast
2:00 PM 48.2 °F - 46.4 °F 93% 30.31 in 9.0 mi WSW 4.6 mph - N/A   Overcast
3:00 PM 48.2 °F - 44.6 °F 87% 30.31 in 7.0 mi WSW 5.8 mph - N/A   Overcast
4:00 PM 47 °F - 45 °F 92% 30.31 in - SW 4.6 mph - -  
4:00 PM 46.4 °F 44.3 °F 44.6 °F 93% 30.32 in 6.0 mi WSW 4.6 mph - N/A   Overcast
4:47 PM 46.4 °F 44.3 °F 44.6 °F 93% 30.32 in 6.0 mi SSW 4.6 mph - N/A   Overcast
4:55 PM 46.4 °F 44.3 °F 44.6 °F 93% 30.32 in 6.0 mi SSW 4.6 mph - N/A   Overcast
5:00 PM 46.4 °F - 44.6 °F 93% 30.32 in 5.0 mi Variable 2.3 mph - N/A   Overcast
5:21 PM 46.4 °F - 44.6 °F 93% 30.33 in 3.0 mi Calm Calm - N/A   Overcast
6:00 PM 44.6 °F - 44.6 °F 100% 30.33 in 3.0 mi Calm Calm - N/A   Overcast
6:19 PM 44.6 °F - 44.6 °F 100% 30.33 in 3.0 mi Calm Calm - N/A   Overcast
6:28 PM 44.6 °F - 44.6 °F 100% 30.33 in 3.0 mi NNE 2.3 mph - N/A   Overcast
6:32 PM 44.6 °F - 44.6 °F 100% 30.33 in 3.0 mi Calm Calm - N/A   Overcast
6:35 PM 44.6 °F - 44.6 °F 100% 30.33 in 2.2 mi Calm Calm - N/A   Overcast
6:38 PM 44.6 °F - 44.6 °F 100% 30.33 in 2.2 mi Variable 2.3 mph - N/A   Overcast
6:54 PM 44.6 °F - 44.6 °F 100% 30.34 in 3.0 mi ESE 2.3 mph - N/A   Overcast
7:00 PM 45 °F - 44 °F 96% 30.33 in - East 2.3 mph - -  
7:00 PM 44.6 °F 43.1 °F 44.6 °F 100% 30.34 in 3.0 mi East 3.5 mph - N/A   Overcast
7:23 PM 44.6 °F - 44.6 °F 100% 30.34 in 2.5 mi Calm Calm - N/A   Overcast
7:32 PM 44.6 °F - 42.8 °F 93% 30.34 in 3.0 mi ESE 2.3 mph - N/A   Overcast
7:40 PM 44.6 °F - 42.8 °F 93% 30.34 in 2.5 mi Calm Calm - N/A   Overcast
7:56 PM 44.6 °F 43.1 °F 42.8 °F 93% 30.34 in 3.0 mi East 3.5 mph - N/A   Overcast
8:00 PM 44.6 °F - 42.8 °F 93% 30.34 in 3.0 mi Variable 2.3 mph - N/A   Overcast
8:21 PM 44.6 °F - 42.8 °F 93% 30.34 in 5.0 mi Calm Calm - N/A Rain Light Rain
8:41 PM 44.6 °F - 42.8 °F 93% 30.34 in 6.0 mi Calm Calm - N/A Rain Light Rain
8:51 PM 44.6 °F - 42.8 °F 93% 30.34 in 9.0 mi Variable 2.3 mph - N/A Rain Light Rain
9:00 PM 44.6 °F - 42.8 °F 93% 30.35 in 9.0 mi Variable 2.3 mph - N/A Rain Light Rain
9:22 PM 44.6 °F - 42.8 °F 93% 30.34 in 5.0 mi Variable 2.3 mph - N/A Rain Light Rain
9:25 PM 44.6 °F - 42.8 °F 93% 30.34 in 5.0 mi Calm Calm - N/A Rain Light Rain
9:43 PM 44.6 °F - 42.8 °F 93% 30.34 in 5.0 mi Calm Calm - N/A Rain Light Rain
9:45 PM 42.8 °F - 42.8 °F 100% 30.34 in 4.0 mi Calm Calm - N/A Rain Light Rain
9:47 PM 42.8 °F - 42.8 °F 100% 30.34 in 4.0 mi Calm Calm - N/A Rain Light Rain
9:54 PM 42.8 °F - 42.8 °F 100% 30.34 in 5.0 mi Variable 2.3 mph - N/A   Overcast
9:55 PM 42.8 °F 41.1 °F 42.8 °F 100% 30.34 in 6.0 mi East 3.5 mph - N/A   Overcast
10:00 PM 44 °F - 43 °F 95% 30.33 in - ENE 3.5 mph - -  
10:00 PM 42.8 °F 40.1 °F 42.8 °F 100% 30.34 in 9.0 mi ENE 4.6 mph - N/A   Mostly Cloudy
11:00 PM 42.8 °F 41.1 °F 42.8 °F 100% 30.33 in 9.0 mi ENE 3.5 mph - N/A   Overcast